Theta_e
318 319 317 317 317 314 311 314 316 318 318 318 316 315 318 318 317 317 316 315 315 315 315 314 314 313 312 311 309 308 308 308 309 308 308 307 306 306 304 304 304 303 303 303
318 317 316 316 316 316 315 313 314 315 315 315 316 318 318 318 317 316 315 315 315 314 313 314 313 312 312 310 309 309 309 309 309 308 308 307 306 306 305 305 304 303 302 302
319 316 316 316 317 316 316 315 315 315 315 316 317 318 318 317 316 315 315 315 314 314 313 313 312 312 311 309 311 312 312 312 312 311 309 307 306 306 305 305 304 304 303 303
320 317 319 320 316 316 317 317 315 316 316 318 317 317 317 316 315 315 315 315 314 314 314 312 312 311 310 311 312 313 313 313 312 312 312 311 310 310 308 307 305 304 304 303
320 319 319 319 319 315 314 318 316 317 317 317 317 317 317 318 318 316 315 314 314 314 314 313 312 311 311 312 313 313 313 313 312 312 312 311 311 311 311 311 311 310 309 306
317 321 322 322 316 316 316 317 319 317 317 317 316 313 314 319 318 317 315 315 314 314 314 314 313 311 312 313 313 313 313 312 312 312 312 311 311 311 311 311 311 310 309 308
320 320 322 319 315 315 319 320 323 322 321 319 314 317 318 318 317 317 316 315 315 315 314 313 313 312 312 312 313 313 312 312 312 312 311 311 311 311 311 311 310 308 306 306
316 319 321 320 314 316 318 322 321 319 318 318 318 317 317 317 316 316 316 317 316 315 314 313 313 312 312 312 313 312 312 312 312 312 311 311 311 311 310 310 308 306 305 305
317 317 320 318 319 319 319 319 321 319 318 317 317 317 316 316 315 315 315 315 315 315 313 314 313 313 313 314 313 311 311 312 312 311 311 310 310 310 310 309 306 306 306 306
320 319 319 320 320 319 318 318 318 317 317 317 316 316 315 315 315 315 316 316 315 315 314 313 315 313 312 313 312 311 310 310 311 311 310 310 310 309 309 308 306 305 305 305
317 318 319 319 320 319 319 319 318 318 317 316 316 315 315 315 316 316 316 315 314 314 313 313 313 313 313 314 313 312 311 311 310 310 309 309 309 309 309 307 305 305 305 303
320 319 319 320 320 319 318 318 318 318 317 317 316 317 318 318 318 317 316 315 314 314 313 313 313 312 312 314 314 312 311 310 309 308 308 308 309 309 308 306 305 305 305 304
320 321 320 320 319 319 318 319 318 317 317 317 317 317 318 318 317 315 314 314 314 313 313 312 312 312 312 312 310 310 309 309 308 307 307 308 309 308 306 306 305 305 304 304
319 318 318 318 318 317 317 318 317 318 318 319 319 318 317 316 315 314 315 315 314 312 312 312 311 311 311 310 309 309 308 307 306 306 307 308 307 306 305 304 304 304 303 302
318 318 316 316 317 317 317 317 317 317 316 316 315 316 316 315 315 315 314 313 313 312 312 311 310 310 309 308 308 307 307 305 305 305 306 306 306 305 304 303 302 301 300 300
317 317 316 316 316 316 316 316 316 315 315 315 315 314 314 314 313 313 312 312 311 311 310 310 309 309 308 307 306 306 305 305 305 306 306 305 304 302 301 300 299 298 299 299
314 315 315 315 315 315 315 315 314 313 313 313 313 312 312 312 311 311 310 310 310 310 309 308 309 308 308 307 305 305 304 304 305 305 304 303 301 299 298 298 298 299 299 297
314 314 314 314 314 314 314 313 313 312 311 311 310 310 310 309 309 308 308 308 309 308 307 307 308 308 307 305 304 303 304 305 304 303 301 298 298 298 298 298 299 298 297 295
313 313 313 313 312 312 311 311 310 310 308 306 306 305 304 304 305 305 305 306 305 306 306 307 307 306 305 304 303 304 304 304 301 298 297 298 297 298 298 298 297 295 294 293
311 310 310 309 308 307 305 304 304 304 304 304 304 304 304 304 304 304 304 304 304 305 306 306 306 304 303 303 304 304 302 298 297 297 297 298 298 298 296 294 293 293 293 293
307 305 304 304 303 303 303 304 304 304 304 304 303 303 303 303 303 304 303 303 304 304 305 305 305 304 303 304 303 300 297 297 297 297 298 298 297 295 294 293 293 293 292 292
303 303 303 303 303 304 304 303 303 302 302 302 302 302 302 303 303 303 303 303 303 304 304 304 303 303 303 302 298 297 297 297 297 297 298 297 296 294 293 292 293 292 291 291
303 303 303 303 303 302 302 302 302 302 302 302 303 303 303 303 303 302 303 303 303 303 303 303 302 303 302 298 297 296 296 297 296 297 296 296 295 293 293 293 292 291 291 290
302 302 302 302 302 301 301 301 301 302 302 302 303 303 303 304 303 302 303 303 303 303 303 302 302 300 297 296 296 295 295 295 296 296 295 294 294 292 292 292 291 291 290 289
302 302 301 301 300 299 299 300 301 301 301 302 303 303 304 303 302 302 302 302 302 302 302 301 299 297 296 295 294 294 294 294 295 294 294 294 293 292 291 291 291 289 290 289
301 301 301 300 298 298 299 299 300 300 300 300 302 303 302 302 302 301 301 302 302 302 302 299 297 296 295 294 293 293 293 294 293 293 293 293 293 292 291 290 291 289 290 290
300 300 299 298 298 298 299 299 299 299 299 300 301 302 303 302 301 302 301 302 302 301 298 297 296 295 293 292 292 292 293 293 293 293 293 293 293 293 291 290 290 290 290 291
Wind_Speed
7 2 5 5 6 11 11 11 6 4 8 13 9 9 19 15 14 14 15 16 18 20 23 24 21 21 20 18 16 15 14 13 12 12 13 15 17 19 23 28 31 33 33 33
3 7 6 9 9 10 16 15 17 16 22 19 27 18 10 13 13 13 13 16 18 21 21 21 22 20 20 17 15 12 10 9 9 10 11 12 14 15 18 21 25 29 33 34
2 6 3 8 11 18 8 8 19 13 20 13 7 6 10 14 16 14 13 16 19 20 20 18 16 16 16 15 12 10 9 9 9 10 10 11 12 15 16 19 20 24 28 31
3 5 4 7 4 3 6 10 13 12 11 10 9 18 18 17 18 14 13 17 18 20 21 18 16 16 16 15 13 13 12 11 11 10 10 10 11 11 12 14 18 22 25 29
4 5 7 9 5 7 7 8 17 19 18 20 21 12 19 10 11 12 16 20 21 21 21 19 18 17 17 17 17 17 15 14 14 14 14 13 13 13 14 16 19 22 25 27
3 4 8 3 2 5 5 7 14 25 21 15 15 3 6 7 10 16 20 22 25 24 24 23 20 18 21 21 21 22 20 19 18 18 18 18 17 17 19 22 24 26 28 30
6 5 6 9 11 9 5 7 1 9 18 17 7 18 10 14 17 19 21 25 28 30 30 27 25 23 24 26 28 27 25 25 24 23 23 22 22 22 23 25 28 30 30 30
3 4 10 15 8 9 7 1 4 9 14 18 25 18 16 19 21 22 24 27 28 31 31 27 26 27 29 31 30 30 31 31 30 28 27 26 25 24 25 28 30 30 29 29
12 9 6 28 16 33 12 7 6 9 13 17 19 24 25 26 27 29 27 30 31 32 31 28 26 26 31 32 32 34 35 37 35 33 31 29 28 26 26 28 30 31 31 32
5 10 11 21 28 18 10 19 25 22 20 21 24 26 30 34 34 32 31 32 32 32 31 32 30 33 33 29 30 34 36 38 39 37 33 30 28 26 27 27 28 29 33 34
8 9 14 15 21 21 23 27 29 28 29 29 31 35 34 32 32 35 33 33 31 31 31 34 35 31 30 33 33 36 38 38 40 38 34 31 28 26 27 28 27 27 29 31
8 9 18 19 16 6 20 25 26 24 27 27 25 29 33 38 37 37 37 32 30 30 33 36 35 36 37 39 40 39 39 39 38 37 33 29 27 27 26 26 26 27 26 27
7 16 24 28 27 27 28 32 32 32 33 35 41 43 39 41 42 35 34 37 38 40 39 36 37 40 40 36 38 39 39 37 35 31 29 26 26 28 29 26 25 26 24 22
23 20 21 19 22 21 23 25 28 32 34 36 37 36 38 39 37 36 36 39 40 36 35 36 39 39 37 38 38 36 34 33 32 28 26 24 24 23 26 28 29 27 23 23
39 37 36 28 28 32 35 40 40 36 32 32 31 31 33 36 38 38 37 35 36 36 37 37 37 38 37 34 31 29 28 26 25 23 23 22 23 24 24 25 27 28 27 24
44 35 32 35 35 35 32 33 34 34 33 32 31 31 31 32 33 35 37 37 36 37 37 34 38 35 33 28 27 25 23 22 21 21 21 21 22 22 23 25 26 25 25 26
28 30 28 30 29 29 25 23 23 22 21 23 27 30 31 32 34 36 36 34 32 33 34 35 31 29 28 25 23 21 19 20 20 19 20 19 21 23 24 23 24 24 23 22
34 34 31 31 29 26 26 23 22 22 22 23 26 27 28 29 33 35 35 34 33 36 35 31 30 29 24 19 17 18 18 17 18 18 19 20 22 22 20 20 20 20 21 19
26 25 22 22 20 19 17 17 19 21 23 23 24 25 27 28 30 32 32 33 33 35 33 29 26 23 19 15 17 17 15 16 18 18 19 20 19 18 16 16 17 18 19 19
15 14 13 14 15 14 13 10 11 13 13 16 19 22 25 26 26 28 28 31 31 32 28 26 21 18 17 15 15 15 15 16 17 17 17 17 16 15 15 16 17 18 21 22
10 8 6 4 4 5 8 10 13 17 20 23 26 28 30 31 30 29 29 30 29 26 25 22 17 16 17 14 13 15 14 14 15 14 14 13 14 14 14 16 18 20 21 23
2 2 2 5 7 9 12 16 20 23 24 25 27 29 31 32 31 29 26 26 25 23 20 20 20 16 14 13 14 15 14 13 12 11 13 14 13 13 15 17 20 21 21 22
3 2 4 8 11 15 18 18 20 22 24 26 28 28 28 29 26 25 26 23 23 22 20 20 16 13 14 15 15 14 13 11 11 12 12 11 12 13 15 18 20 20 21 22
5 4 6 10 14 18 20 20 19 20 22 23 24 25 27 27 24 19 21 22 22 17 16 15 13 14 16 16 14 12 10 10 11 10 10 11 11 13 14 18 19 19 21 20
6 8 11 13 16 20 20 19 19 20 22 23 24 24 23 20 18 17 19 18 17 12 12 13 15 16 16 14 12 11 11 11 9 9 9 11 12 12 14 17 17 18 19 19
12 16 19 20 21 20 20 20 21 22 25 26 24 23 20 18 15 16 18 13 11 12 13 16 16 17 16 14 13 13 12 9 9 7 9 11 10 10 13 14 16 16 18 20
20 21 22 23 21 20 21 20 22 24 23 24 25 22 20 18 14 13 15 13 12 15 16 17 17 17 17 16 15 14 11 9 7 7 9 10 9 10 12 13 14 16 18 20
Wind_Direction
264 257 165 230 204 197 210 218 213 219 251 276 304 312 310 312 327 323 317 316 314 308 300 292 277 277 279 281 286 288 288 289 289 284 277 271 265 262 256 256 260 262 261 262
296 258 238 266 241 236 219 225 246 262 280 279 277 280 306 310 308 309 314 320 319 318 313 290 283 265 271 276 280 281 287 297 300 298 293 285 276 271 266 264 265 262 261 263
246 59 35 293 237 216 217 219 217 228 240 265 269 292 286 291 296 294 302 312 318 325 326 310 286 274 269 269 268 270 281 293 301 302 303 300 295 288 285 280 275 271 268 265
207 153 230 234 205 172 224 231 216 248 248 232 267 283 283 279 280 280 294 304 310 319 322 317 294 278 267 260 258 265 274 283 289 295 299 297 297 299 298 297 292 287 281 277
169 208 292 309 215 174 175 265 213 226 245 241 255 245 269 276 275 279 299 312 307 308 310 310 304 286 266 257 259 267 273 278 281 284 287 286 289 293 297 296 298 297 292 285
157 200 223 233 105 111 130 275 247 208 234 225 171 182 249 245 270 284 297 304 308 303 299 299 299 283 269 263 264 270 274 277 275 277 278 279 284 289 295 297 298 294 291 288
209 235 271 240 161 136 142 242 124 216 221 181 176 212 258 269 273 283 290 295 300 301 296 294 288 282 273 269 269 274 272 273 274 275 277 278 278 284 293 297 297 295 293 292
192 229 262 201 131 178 208 231 224 225 204 209 224 237 251 269 278 283 290 302 300 302 296 294 286 280 279 276 284 274 270 270 272 273 274 275 276 283 291 296 297 297 295 293
186 205 214 187 205 220 232 277 271 260 256 260 261 255 267 275 283 287 291 293 294 298 291 295 290 285 285 290 287 278 269 270 270 270 270 272 274 281 289 299 299 298 297 296
145 224 215 210 220 233 255 261 269 279 279 276 268 272 274 283 288 285 290 295 289 291 287 286 295 293 287 293 291 282 275 273 271 267 266 269 273 282 292 297 295 296 296 296
246 260 284 259 240 251 258 267 272 279 282 279 280 283 287 290 292 293 290 290 284 281 281 284 285 284 288 296 292 284 279 276 271 266 264 265 270 280 289 294 294 294 294 293
233 194 222 243 255 306 265 273 273 281 284 283 281 280 285 289 293 294 293 292 286 282 282 286 280 281 284 288 283 281 277 274 271 262 261 265 272 282 289 293 295 294 292 290
278 266 268 274 280 280 282 283 281 283 284 281 281 283 287 289 291 289 287 287 286 289 286 280 282 283 288 285 284 281 277 271 266 259 259 266 276 287 295 298 294 294 294 293
264 284 279 271 269 280 275 275 278 278 280 282 281 283 286 286 287 288 286 288 290 287 282 283 288 289 291 287 285 279 271 264 258 255 257 266 278 288 294 296 300 300 298 300
263 264 268 274 276 275 276 281 284 282 285 287 288 285 283 285 286 287 290 289 288 287 286 288 294 295 293 292 289 279 270 261 256 260 269 279 285 290 294 295 298 299 301 300
266 268 272 271 272 273 273 274 276 279 283 283 285 284 285 286 287 289 290 291 292 292 293 293 297 298 296 293 285 274 266 260 261 268 275 282 288 294 295 293 295 297 304 307
262 264 263 261 263 268 269 276 279 281 283 282 282 284 287 290 290 291 293 294 293 291 289 296 296 298 296 289 280 269 259 258 266 274 281 289 292 290 290 290 292 298 302 303
253 259 263 267 274 280 281 280 280 282 285 286 288 291 290 289 288 291 292 295 294 292 295 298 296 292 290 283 268 256 258 267 275 281 288 292 290 288 290 299 304 309 314 318
256 260 267 267 267 264 264 270 274 279 286 291 293 294 294 294 294 295 297 294 293 292 299 297 293 285 272 261 256 257 263 271 277 284 289 289 290 294 299 308 315 319 318 323
230 239 243 251 263 274 283 292 299 300 305 303 302 301 302 303 305 300 299 293 292 292 294 291 284 271 261 259 257 263 274 279 280 284 287 288 293 298 304 317 318 316 320 323
254 267 278 280 282 295 301 304 302 300 303 305 306 307 308 310 312 309 300 293 300 296 288 284 272 262 259 253 260 270 273 276 280 284 288 293 295 301 305 313 318 321 321 320
226 257 290 296 302 305 307 308 310 311 311 311 312 313 311 309 310 307 303 294 296 288 281 274 269 257 252 262 267 268 273 274 277 283 285 284 290 301 312 322 322 321 320 318
176 233 292 306 313 311 310 316 322 323 320 319 316 313 309 306 305 301 297 292 291 287 282 275 255 251 257 259 262 265 270 274 278 281 285 295 304 313 322 322 321 319 320 321
230 255 288 302 307 309 313 318 317 320 318 318 318 319 316 314 308 298 289 282 279 282 269 253 249 254 257 259 259 262 270 275 272 282 293 299 307 315 319 317 317 322 323 328
260 284 294 299 303 304 303 310 312 315 317 320 321 321 316 309 294 285 284 286 277 261 249 250 255 255 254 254 259 264 270 265 272 283 294 304 306 320 324 320 321 329 326 329
272 285 295 301 304 307 307 308 309 316 318 317 318 316 311 308 305 288 279 281 268 260 261 257 257 256 255 258 261 266 261 266 272 290 302 298 308 324 327 325 328 331 332 337
282 292 298 301 305 307 302 300 298 306 308 308 313 315 308 303 295 284 272 272 274 269 261 258 258 259 263 263 262 259 258 263 275 294 300 298 318 327 328 328 333 335 337 340